Weather History for KHRT - November, 2011

Change the Weather History Date:

Saturday, November 12, 2011

  Actual Average Record
Temperature  
Mean Temperature 48 °F -  
Max Temperature 64 °F 69 °F 78 °F (1999)
Min Temperature 32 °F 50 °F 32 °F (2011)
Degree Days  
Heating Degree Days 17    
Moisture  
Dew Point 44 °F    
Average Humidity 68    
Maximum Humidity 94    
Minimum Humidity 30    
Precipitation  
Precipitation 0.00 in - - ()
Sea Level Pressure  
Sea Level Pressure 30.25 in    
Wind  
Wind Speed 7 mph (East)    
Max Wind Speed 12 mph    
Max Gust Speed -    
Visibility 10 miles    
Events Rain    
Averages and records for this station are not official NWS values.
T = Trace of Precipitation, MM = Missing Value Source: NWS Daily Summary

Daily Weather History Graph

Daily Weather History Graph

Search for Another Location

Airport or City:

Trip Planner

Search our weather history database for the weather conditions in past years. The results will help you decide how hot, cold, wet, or windy it might be!

Date:

Astronomy

Nov. 12, 2011 Rise Set
Actual Time 6:09 AM CST 4:51 PM CST
Civil Twilight 5:44 AM CST 5:16 PM CST
Nautical Twilight 5:15 AM CST 5:45 PM CST
Astronomical Twilight 4:47 AM CST 6:14 PM CST
Moon 6:14 PM CST (11/12) 7:44 AM CST (11/12)
Length of Visible Light 11h 32m
Length of Day
10h 41m
Full, 97% of the Moon is Illuminated
Nov 12
Full
Nov 18
Last Quarter
Nov 25
New
Dec 2
First Quarter
Dec 10
Full

Hourly Weather History & Observations

Time (CST) Temp. Windchill Dew Point Humidity Pressure Visibility Wind Dir Wind Speed Gust Speed Precip Events Conditions
12:55 AM 34.5 °F 31.6 °F 32.5 °F 92% 30.23 in 10.0 mi North 3.5 mph - N/A   Clear
1:55 AM 33.1 °F 27.7 °F 31.6 °F 94% 30.24 in 10.0 mi North 5.8 mph - N/A   Clear
2:21 AM 33.8 °F 28.6 °F 32.0 °F 93% 30.24 in 10.0 mi North 5.8 mph - N/A   Clear
2:54 AM 33.8 °F 27.7 °F 32.0 °F 93% 30.24 in 10.0 mi North 6.9 mph - N/A   Clear
2:55 AM 32.9 °F 26.7 °F 31.5 °F 94% 30.24 in 10.0 mi North 6.9 mph - 0.00 in   Clear
3:55 AM 32.5 °F 24.8 °F 31.1 °F 94% 30.25 in 10.0 mi North 9.2 mph - N/A   Clear
4:55 AM 34.2 °F 28.2 °F 31.5 °F 90% 30.25 in 10.0 mi North 6.9 mph - N/A   Clear
5:55 AM 34.9 °F 29.0 °F 31.1 °F 86% 30.27 in 10.0 mi North 6.9 mph - N/A   Clear
6:55 AM 39.6 °F 37.4 °F 33.6 °F 79% 30.27 in 10.0 mi North 3.5 mph - N/A   Clear
7:55 AM 50.5 °F - 37.6 °F 61% 30.29 in 10.0 mi ENE 9.2 mph - N/A   Clear
8:44 AM 57.2 °F - 37.4 °F 48% 30.31 in 10.0 mi ENE 11.5 mph - N/A Rain Light Rain
8:54 AM 59.0 °F - 35.6 °F 42% 30.31 in 10.0 mi ENE 9.2 mph - N/A   Clear
8:55 AM 58.6 °F - 35.2 °F 42% 30.31 in 10.0 mi ENE 9.2 mph - 0.00 in   Clear
9:55 AM 62.6 °F - 30.2 °F 30% 30.32 in 10.0 mi East 9.2 mph - N/A   Clear
10:55 AM 64.6 °F - 37.2 °F 36% 30.30 in 10.0 mi East 10.4 mph - N/A   Clear
11:55 AM 64.9 °F - 39.9 °F 40% 30.27 in 10.0 mi SE 10.4 mph - N/A   Clear
12:55 PM 64.4 °F - 43.3 °F 46% 30.25 in 10.0 mi ESE 10.4 mph - N/A   Partly Cloudy
1:38 PM 64.4 °F - 46.4 °F 52% 30.25 in 10.0 mi ESE 9.2 mph - N/A   Light Drizzle
1:41 PM 64.4 °F - 46.4 °F 52% 30.25 in 10.0 mi SE 8.1 mph - N/A   Partly Cloudy
1:55 PM 64.8 °F - 46.0 °F 51% 30.25 in 10.0 mi ESE 9.2 mph - 0.00 in   Partly Cloudy
2:55 PM 63.9 °F - 48.2 °F 57% 30.25 in 10.0 mi SE 5.8 mph - N/A   Partly Cloudy
3:55 PM 63.0 °F - 50.0 °F 63% 30.23 in 10.0 mi ENE 4.6 mph - N/A   Mostly Cloudy
4:55 PM 61.9 °F - 52.3 °F 71% 30.23 in 10.0 mi ESE 4.6 mph - N/A   Partly Cloudy
5:04 PM 62.6 °F - 51.8 °F 68% 30.23 in 10.0 mi SE 5.8 mph - N/A   Light Drizzle
5:08 PM 62.6 °F - 51.8 °F 68% 30.23 in 10.0 mi SE 6.9 mph - N/A   Partly Cloudy
5:20 PM 60.8 °F - 51.8 °F 72% 30.23 in 10.0 mi SE 5.8 mph - N/A   Light Drizzle
5:29 PM 60.8 °F - 51.8 °F 72% 30.24 in 10.0 mi ESE 3.5 mph - N/A   Mostly Cloudy
5:55 PM 61.5 °F - 51.6 °F 70% 30.23 in 10.0 mi SE 8.1 mph - 0.00 in   Mostly Cloudy
6:55 PM 62.4 °F - 52.5 °F 70% 30.24 in 10.0 mi SE 8.1 mph - N/A   Partly Cloudy
7:55 PM 62.2 °F - 53.2 °F 72% 30.23 in 10.0 mi SE 8.1 mph - N/A   Scattered Clouds
8:55 PM 63.5 °F - 54.5 °F 72% 30.22 in 10.0 mi SE 10.4 mph - N/A   Overcast
9:05 PM 64.4 °F - 55.4 °F 73% 30.22 in 10.0 mi SE 9.2 mph - N/A   Overcast
9:11 PM 64.4 °F - 53.6 °F 68% 30.22 in 10.0 mi SE 10.4 mph - N/A   Overcast
9:12 PM 64.4 °F - 55.4 °F 73% 30.22 in 10.0 mi SE 10.4 mph - N/A   Overcast
9:28 PM 64.4 °F - 55.4 °F 73% 30.22 in 10.0 mi SSE 9.2 mph - N/A   Overcast
9:55 PM 63.3 °F - 54.9 °F 74% 30.22 in 10.0 mi SE 10.4 mph - N/A   Mostly Cloudy
10:12 PM 62.6 °F - 55.4 °F 77% 30.23 in 10.0 mi SSE 10.4 mph - N/A   Overcast
10:55 PM 63.3 °F - 54.3 °F 72% 30.22 in 10.0 mi ESE 6.9 mph - N/A   Overcast
11:55 PM 62.6 °F - 54.3 °F 74% 30.20 in 10.0 mi SE 9.2 mph - N/A   Mostly Cloudy